[[{"header":{"parameterUnit":"m.s-1","parameterCategory":1,"la1":30.2991,"la2":30.254,"lo1":-89.0895,"lo2":-89.0444,"dy":0.0017,"dx":0.0017,"nx":28,"ny":28,"refTime":"2024-03-28T21:00:00:Z","depth":0,"parameterNumber":2,"parameterNumberName":"U-component_of_WINDS"},"data":[0,0,0,0,0,0,0,0,0,0,0,0,0,0,0,0,0,0,0,0,0,0,0,0,0,0,0,0,0,0,0,0,0,0,0,0,0,0,0,0,0,0,0,0,0,0,0,0,0,0,0,0,0,0,0,0,0,0,-2.9352,-2.9353,0,-2.9364,-2.9364,-2.9364,-2.9329,-2.9328,-2.9327,-2.9326,-2.9339,-2.934,-2.9341,0,0,0,0,0,0,0,0,0,0,0,0,0,-2.9303,-2.9304,-2.9352,-2.9353,-2.9353,-2.9364,-2.9364,-2.9364,-2.933,-2.9328,-2.9327,-2.9326,-2.9338,-2.934,-2.9341,0,0,0,0,0,0,0,0,0,0,0,0,0,-2.9321,-2.9305,-2.9352,-2.9337,-2.9336,-2.9364,-2.9364,-2.9364,-2.933,-2.9328,-2.9327,-2.9325,-2.9338,-2.934,-2.9342,-2.9386,0,0,-2.9348,-2.9349,0,0,0,0,0,0,0,0,-2.932,-2.9322,-2.9339,-2.9338,-2.9337,-2.9344,-2.9351,-2.9372,-2.933,-2.9332,-2.9326,-2.9324,-2.9342,-2.9343,-2.9349,-2.9386,-2.9387,-2.9348,-2.9349,-2.935,-2.935,0,0,0,0,0,0,0,-2.9319,-2.9322,-2.9357,-2.9339,-2.9338,-2.933,-2.9331,-2.9355,-2.9346,-2.9332,-2.9329,-2.9331,-2.9341,-2.9347,-2.9349,-2.9387,-2.9348,-2.935,-2.9351,-2.9352,-2.9463,-2.9465,0,0,0,0,0,0,-2.9319,-2.9321,-2.9357,-2.9357,-2.9324,-2.9332,-2.9333,-2.9343,-2.9345,-2.9344,-2.9332,-2.9329,-2.9344,-2.9347,-2.9349,-2.9401,-2.935,-2.9352,-2.9353,-2.9461,-2.9463,-2.9465,0,0,0,0,0,0,-2.9318,-2.9323,-2.9356,-2.9339,-2.9342,-2.9335,-2.9346,-2.9344,-2.935,-2.9346,-2.9344,-2.934,-2.9343,-2.9346,-2.9377,-2.9401,-2.9353,-2.9354,-2.9459,-2.9462,-2.9464,-2.9505,0,0,0,0,0,0,-2.9317,-2.9322,-2.9338,-2.9339,-2.9343,-2.9383,-2.9348,-2.9345,-2.9354,-2.935,-2.9353,-2.9352,-2.9342,-2.9374,-2.9379,-2.9403,-2.9356,-2.9457,-2.946,-2.9464,-2.9502,-2.9509,-2.9515,0,0,0,0,0,-2.9315,-2.9349,-2.9339,-2.9344,-2.9363,-2.9385,-2.9387,-2.9375,-2.9356,-2.9372,-2.937,-2.9352,-2.9399,-2.9378,-2.9383,-2.9408,-2.9455,-2.9459,-2.9463,-2.9499,-2.9507,-2.9515,0,0,0,0,0,0,-2.9351,-2.9349,-2.9338,-2.9373,-2.9379,-2.9379,-2.9398,-2.9385,-2.9397,-2.9393,-2.9378,-2.9379,-2.9413,-2.9414,-2.9391,-2.9451,-2.9424,-2.9429,-2.9449,-2.9457,-2.9464,-2.9462,-2.9358,0,0,0,0,0,-2.9363,-2.938,-2.9378,-2.9409,-2.9413,-2.9406,-2.9414,-2.9405,-2.9411,-2.9414,-2.9413,-2.942,-2.9437,-2.9447,-2.9462,-2.9503,-2.9503,-2.9523,-2.9529,-2.9535,-2.9539,-2.9561,-2.957,-2.9479,-2.9478,-2.9478,0,0,-2.9387,-2.9388,-2.94,-2.9416,-2.942,-2.9439,-2.9408,-2.9429,-2.9443,-2.9417,-2.9445,-2.9446,-2.9453,-2.9489,-2.9505,-2.9491,-2.9565,-2.954,-2.9545,-2.9545,-2.9566,-2.9575,-2.9582,-2.9481,-2.9481,-2.948,0,0,-2.9441,-2.9444,-2.947,-2.9475,-2.9482,-2.9477,-2.9484,-2.9486,-2.9486,-2.9515,-2.9496,-2.9514,-2.9542,-2.9548,-2.9554,-2.9615,-2.9599,-2.962,-2.9654,-2.9676,-2.9683,-2.969,-2.971,-2.9718,-2.9625,-2.9625,-2.9625,0,-2.947,-2.9497,-2.9486,-2.9508,-2.9516,-2.9495,-2.9522,-2.9528,-2.9539,-2.9546,-2.953,-2.9567,-2.957,-2.9607,-2.9622,-2.9629,-2.9636,-2.9618,-2.9683,-2.969,-2.9695,-2.9715,-2.9723,-2.9627,-2.9627,-2.9627,-2.9627,0,-2.9533,-2.9552,-2.9573,-2.9585,-2.9596,-2.9621,-2.9614,-2.9627,-2.9618,-2.9615,-2.9646,-2.965,-2.9665,-2.9674,-2.9665,-2.9711,-2.9702,-2.9686,-2.9657,-2.9706,-2.9725,-2.9732,-2.9631,-2.963,-2.9629,-2.9629,0,0,-2.9605,-2.9613,-2.962,-2.9626,-2.9633,-2.9648,-2.9674,-2.9689,-2.97,-2.971,-2.973,-2.9757,-2.9742,-2.975,-2.9742,-2.9762,-2.9809,-2.9743,-2.9743,-2.9754,-2.986,-2.9871,-2.9879,-2.98,-2.9801,-2.9803,-2.9859,0,-2.9658,-2.9699,-2.9691,-2.9732,-2.9751,-2.9733,-2.9755,-2.9763,-2.9762,-2.9778,-2.9778,-2.9796,-2.9776,-2.9781,-2.9799,-2.9799,-2.983,-2.9796,-2.9819,-2.982,-2.9815,-2.9889,-2.99,-2.9953,-2.9866,-2.9867,-2.9868,0,-2.9723,-2.9735,-2.9778,-2.9784,-2.9792,-2.9811,-2.9826,-2.9842,-2.9851,-2.9849,-2.986,-2.9849,-2.9875,-2.9849,-2.9885,-2.9862,-2.9872,-2.9874,-2.9876,-2.9875,-2.9845,-2.9889,-2.9969,-2.9976,-2.9879,-2.9878,-2.9878,0,-2.977,-2.9798,-2.9827,-2.9833,-2.9841,-2.9855,-2.986,-2.9867,-2.9878,-2.9891,-2.9898,-2.9915,-2.9924,-2.9937,-2.9932,-2.9913,-2.9969,-2.9942,-2.9968,-2.9969,-2.9978,-2.9977,-3.0059,-2.9989,-2.9988,-2.9988,-2.9988,0,-2.9827,-2.9854,-2.9849,-2.9866,-2.9897,-2.9889,-2.9919,-2.9921,-2.9929,-2.9948,-2.9935,-2.9953,-2.9946,-2.9964,-2.9961,-2.9991,-2.9996,-2.9995,-2.9993,-2.9995,-2.9995,-2.9999,-2.9995,-2.999,-2.999,-2.999,-2.9989,0,-2.9883,-2.9881,-2.9912,-2.9918,-2.992,-2.9942,-2.9948,-2.9965,-2.9965,-2.9989,-2.9995,-2.9995,-3.0015,-3.0013,-3.0036,-3.0034,-3.0071,-3.0066,-3.0068,-3.0066,-3.0092,-3.0089,-3.0177,-3.0189,-3.0112,-3.0113,-3.0114,0,-2.9919,-2.9939,-2.9948,-2.996,-2.9965,-2.9984,-2.9995,-2.999,-3.0002,-3.0016,-3.0032,-3.0052,-3.0067,-3.0101,-3.0104,-3.0122,-3.0116,-3.0146,-3.0118,-3.012,-3.0115,-3.0113,-3.0115,-3.0151,-3.0151,-3.0152,-3.0153,0,-2.9982,-2.9981,-2.9997,-3.0014,-3.0027,-3.004,-3.0052,-3.0062,-3.0058,-3.0073,-3.0094,-3.0106,-3.0131,-3.0151,-3.0169,-3.0174,-3.0163,-3.0162,-3.0169,-3.0169,-3.0169,-3.0168,-3.0081,-3.0159,-3.0159,-3.0158,-3.0158,-3.0158,-3.0028,-3.0046,-3.0055,-3.0074,-3.0083,-3.0095,-3.0111,-3.0114,-3.0132,-3.0151,-3.0148,-3.0172,-3.0183,-3.0206,-3.0213,-3.0233,-3.0222,-3.0232,-3.0234,-3.0236,-3.0238,-3.0168,-3.0236,-3.0236,-3.0236,-3.0236,-3.0236,0,-3.009,-3.0096,-3.0114,-3.0131,-3.0146,-3.0136,-3.0149,-3.0162,-3.0184,-3.0195,-3.0211,-3.0237,-3.0257,-3.0262,-3.0282,-3.0296,-3.0292,-3.0302,-3.0299,-3.0301,-3.0248,-3.0239,-3.0305,-3.0305,-3.0305,-3.0305,-3.0305,-3.0305,-3.0124,-3.0153,-3.0153,-3.0187,-3.0193,-3.0216,-3.0225,-3.0236,-3.0245,-3.0274,-3.0291,-3.0294,-3.0304,-3.0324,-3.0343,-3.0344,-3.0351,-3.0363,-3.0362,-3.0311,-3.0304,-3.0298,-3.0289,-3.0365,-3.0365,-3.0413,-3.0414,-3.0414]},{"header":{"parameterUnit":"m.s-1","parameterCategory":1,"la1":30.2991,"la2":30.254,"lo1":-89.0895,"lo2":-89.0444,"dy":0.0017,"dx":0.0017,"nx":28,"ny":28,"refTime":"2024-03-28T21:00:00:Z","depth":0,"parameterNumber":3,"parameterNumberName":"V-component_of_WINDS"},"data":[0,0,0,0,0,0,0,0,0,0,0,0,0,0,0,0,0,0,0,0,0,0,0,0,0,0,0,0,0,0,0,0,0,0,0,0,0,0,0,0,0,0,0,0,0,0,0,0,0,0,0,0,0,0,0,0,0,0,3.8307,3.8308,0,3.8363,3.8364,3.8364,3.8413,3.8413,3.8414,3.8415,3.8468,3.8469,3.847,0,0,0,0,0,0,0,0,0,0,0,0,0,3.8239,3.824,3.8307,3.8308,3.8308,3.8363,3.8364,3.8364,3.8413,3.8414,3.8414,3.8415,3.8468,3.8469,3.847,0,0,0,0,0,0,0,0,0,0,0,0,0,3.8279,3.8241,3.8307,3.8339,3.8343,3.8363,3.8364,3.8365,3.8413,3.8414,3.8414,3.8415,3.8467,3.8469,3.847,3.8461,0,0,3.8474,3.8475,0,0,0,0,0,0,0,0,3.8277,3.8282,3.8334,3.8337,3.8341,3.8382,3.836,3.8397,3.8412,3.8386,3.8415,3.8416,3.8438,3.8442,3.8451,3.8464,3.8466,3.8474,3.8475,3.8476,3.8476,0,0,0,0,0,0,0,3.8274,3.8279,3.8329,3.8334,3.8339,3.835,3.8357,3.8367,3.8407,3.8388,3.8392,3.8398,3.8441,3.8449,3.8452,3.8467,3.8474,3.8475,3.8476,3.8477,3.8478,3.8477,0,0,0,0,0,0,3.8267,3.8277,3.8327,3.8331,3.831,3.8351,3.8358,3.8368,3.8407,3.8413,3.8397,3.84,3.8447,3.8451,3.8454,3.8448,3.8476,3.8477,3.8478,3.8478,3.8477,3.8477,0,0,0,0,0,0,3.8265,3.8271,3.8325,3.8305,3.8313,3.8351,3.8361,3.8368,3.8377,3.8414,3.8421,3.8399,3.8447,3.8452,3.846,3.8451,3.8477,3.8479,3.8479,3.8478,3.8477,3.8435,0,0,0,0,0,0,3.8263,3.827,3.8267,3.8304,3.8314,3.833,3.8361,3.8369,3.838,3.8384,3.8417,3.8423,3.8448,3.8458,3.8461,3.8453,3.848,3.848,3.8479,3.8477,3.8437,3.8432,3.8428,0,0,0,0,0,3.826,3.8252,3.8267,3.8273,3.8311,3.8329,3.8335,3.8365,3.8379,3.8377,3.84,3.8422,3.8451,3.8458,3.8462,3.8454,3.8481,3.8479,3.8477,3.8439,3.8433,3.8428,0,0,0,0,0,0,3.8211,3.8257,3.8275,3.8278,3.83,3.8338,3.8336,3.8357,3.8374,3.8377,3.8413,3.842,3.8423,3.844,3.8447,3.8449,3.8469,3.8468,3.8438,3.8433,3.8429,3.8425,3.8481,0,0,0,0,0,3.8201,3.8213,3.8252,3.8251,3.8262,3.8297,3.8305,3.8327,3.835,3.8359,3.8383,3.8404,3.8418,3.8426,3.8441,3.844,3.8448,3.8436,3.8432,3.8428,3.8427,3.8429,3.8424,3.8471,3.8471,3.8471,0,0,3.8179,3.8206,3.8211,3.8242,3.8261,3.8273,3.8304,3.8314,3.8322,3.836,3.837,3.8388,3.8414,3.8417,3.842,3.8431,3.8416,3.8426,3.8422,3.8423,3.8426,3.8422,3.8418,3.847,3.847,3.847,0,0,3.8146,3.8167,3.817,3.8189,3.8219,3.8243,3.8243,3.8278,3.8293,3.8303,3.8333,3.8342,3.8365,3.8383,3.8395,3.837,3.8391,3.8374,3.835,3.8352,3.8348,3.8345,3.8337,3.8334,3.8372,3.8372,3.8372,0,3.8115,3.8134,3.8168,3.8177,3.819,3.8227,3.823,3.8247,3.8279,3.8287,3.8299,3.833,3.835,3.8358,3.8353,3.8361,3.8363,3.837,3.8346,3.8343,3.8341,3.8334,3.833,3.837,3.837,3.8371,3.8371,0,3.8095,3.8107,3.8106,3.8139,3.8151,3.8157,3.8192,3.82,3.8221,3.8243,3.8254,3.8279,3.83,3.8304,3.8323,3.8316,3.8322,3.8339,3.836,3.8334,3.8328,3.8325,3.8367,3.8368,3.8368,3.8369,0,0,3.8031,3.8084,3.8083,3.8099,3.8135,3.8145,3.8153,3.8175,3.8183,3.8203,3.8211,3.823,3.8248,3.8261,3.8283,3.8284,3.8264,3.8302,3.8303,3.8295,3.8259,3.8246,3.8242,3.8279,3.8278,3.8278,3.8257,0,3.8004,3.8022,3.8053,3.806,3.8073,3.8109,3.8116,3.8138,3.816,3.8173,3.8196,3.821,3.8231,3.8239,3.8242,3.8266,3.8258,3.8268,3.8286,3.8286,3.8279,3.8239,3.8225,3.8204,3.8255,3.8254,3.8254,0,3.7975,3.7996,3.8005,3.8042,3.8049,3.8054,3.8079,3.8091,3.8117,3.8133,3.8149,3.8174,3.8183,3.8203,3.8217,3.8223,3.8232,3.8245,3.8245,3.8248,3.8269,3.8241,3.8198,3.8195,3.825,3.8251,3.8251,0,3.7929,3.7959,3.7969,3.7982,3.8025,3.8028,3.8046,3.8074,3.8086,3.8107,3.8115,3.8135,3.8147,3.8162,3.8192,3.8203,3.8203,3.8224,3.8216,3.8215,3.8214,3.8214,3.8172,3.8219,3.8219,3.8219,3.8219,0,3.7896,3.79,3.795,3.7955,3.7961,3.7998,3.8002,3.8023,3.8048,3.8058,3.809,3.8099,3.8137,3.815,3.8173,3.8182,3.8187,3.8199,3.8205,3.8197,3.8195,3.8204,3.8206,3.8218,3.8218,3.8218,3.8219,0,3.7845,3.7879,3.7892,3.7933,3.7943,3.7946,3.798,3.7987,3.8011,3.8024,3.8029,3.8066,3.8083,3.8115,3.814,3.8156,3.816,3.817,3.8151,3.8155,3.8146,3.8146,3.8108,3.8105,3.8153,3.8152,3.8152,0,3.7823,3.7827,3.7869,3.7879,3.7897,3.7912,3.7926,3.7961,3.7974,3.8005,3.8008,3.8029,3.8047,3.8073,3.8101,3.8121,3.8133,3.8118,3.8136,3.8128,3.8134,3.8133,3.8134,3.8114,3.8113,3.8112,3.8112,0,3.7779,3.7796,3.7814,3.7839,3.7855,3.7875,3.7897,3.7904,3.7944,3.7956,3.7976,3.799,3.8018,3.8037,3.8062,3.8079,3.8102,3.8106,3.8106,3.8097,3.8087,3.8093,3.8141,3.8107,3.8107,3.8108,3.8108,3.8108,3.7742,3.7749,3.778,3.78,3.7821,3.7841,3.7851,3.7877,3.7894,3.792,3.794,3.7958,3.7985,3.8021,3.8037,3.8052,3.8062,3.8061,3.8061,3.806,3.8057,3.8084,3.8056,3.8056,3.8056,3.8056,3.8056,0,3.7701,3.7724,3.7742,3.7773,3.7789,3.7811,3.7837,3.7849,3.7865,3.7889,3.7907,3.793,3.7949,3.798,3.8002,3.8008,3.8019,3.8012,3.8012,3.8016,3.8046,3.8045,3.8003,3.8003,3.8003,3.8003,3.8003,3.8003,3.7682,3.7694,3.7715,3.7738,3.776,3.778,3.7793,3.7812,3.7832,3.7856,3.7874,3.7894,3.7921,3.7946,3.7965,3.7973,3.798,3.7971,3.7982,3.8009,3.8014,3.8019,3.8018,3.7972,3.7971,3.7952,3.7952,3.7952]}]]